Location: Zagreb
(45.8000°N, 16.0000°E)
Time: 14:37:26
(UTC+02:00)

Transit 2A - Pass Details

Date: 17 August 2022
Orbit: 601 x 956 km, 66.7° (Epoch: 25 September)

Event Time Altitude Azimuth Distance (km) Brightness Sun altitude
Rises 19:20:17 0° 329° (NNW) 2,860 9.7 6.0°
Reaches altitude 10° 19:22:32 10° 334° (NNW) 1,960 8.8 5.6°
Maximum altitude 19:26:51 59° 54° (NE) 723 5.8 4.9°
Drops below altitude 10° 19:31:22 10° 134° (SE) 2,049 7.7 4.1°
Sets 19:33:46 0° 138° (SE) 3,002 8.6 3.7°
